This is the latest recevied weather packets stored in our database for station/object RV1CJ-14. If no packets are shown the sender has not sent any weather packets the latest 10 day(s).
| Time | Temp. | Humidity | Pressure | Rain* | Wind** | Luminosity | Snow |
|---|---|---|---|---|---|---|---|
| 1777902603 | 17.22° C | 72% | 997.8 hPa | 0.25 mm | - | 42 W/m² | - |
| 1777902003 | 16.67° C | 71% | 997.9 hPa | 0.25 mm | - | 28 W/m² | - |
| 1777901403 | 17.22° C | 71% | 998 hPa | 0.25 mm | - | 47 W/m² | - |
| 1777900803 | 17.22° C | 69% | 998.3 hPa | 0.25 mm | - | 26 W/m² | - |
| 1777900203 | 17.78° C | 66% | 998.6 hPa | 0 mm | - | 30 W/m² | - |
| 1777899603 | 18.33° C | 63% | 998.8 hPa | 0 mm | - | 25 W/m² | - |
| 1777899003 | 18.33° C | 62% | 998.5 hPa | 0 mm | - | 19 W/m² | - |
| 1777898403 | 18.89° C | 60% | 998.5 hPa | 0 mm | - | 25 W/m² | - |
| 1777897803 | 18.89° C | 61% | 998.5 hPa | 0 mm | - | 33 W/m² | - |
| 1777897203 | 18.89° C | 60% | 998.8 hPa | 0 mm | - | 35 W/m² | - |
| 1777896603 | 19.44° C | 59% | 998.9 hPa | 0 mm | - | 47 W/m² | - |
| 1777896003 | 20° C | 58% | 999 hPa | 0 mm | - | 51 W/m² | - |
| 1777895403 | 19.44° C | 58% | 999.2 hPa | 0 mm | - | 58 W/m² | - |
| 1777894803 | 19.44° C | 58% | 999.4 hPa | 0 mm | - | 142 W/m² | - |
| 1777894203 | 18.89° C | 58% | 999.5 hPa | 0 mm | - | 160 W/m² | - |
| 1777893603 | 18.89° C | 59% | 999.7 hPa | 0 mm | - | 151 W/m² | - |
| 1777893003 | 18.89° C | 59% | 999.9 hPa | 0 mm | - | 139 W/m² | - |
| 1777892403 | 18.89° C | 60% | 1000 hPa | 0 mm | - | 171 W/m² | - |
| 1777891803 | 18.33° C | 60% | 1000.2 hPa | 0 mm | - | 149 W/m² | - |
| 1777891203 | 18.33° C | 61% | 1000.3 hPa | 0 mm | - | 178 W/m² | - |
| 1777890603 | 17.78° C | 61% | 1000.5 hPa | 0 mm | - | 100 W/m² | - |
| 1777890003 | 18.33° C | 61% | 1000.6 hPa | 0 mm | - | 149 W/m² | - |
| 1777889403 | 18.33° C | 61% | 1000.7 hPa | 0 mm | - | 160 W/m² | - |
| 1777888803 | 17.78° C | 62% | 1000.8 hPa | 0 mm | - | 188 W/m² | - |
| 1777888203 | 17.78° C | 61% | 1000.8 hPa | 0 mm | - | 243 W/m² | - |
* Rain latest hour (hover to see other rain measurements)
** Current wind speed in m/s (hover to see current wind gust speed)